GFSNGP_prec_cthk_330.txt.gz
RH
26 26 28 31 31 32 31 29 31 29 30 33 42 44 43 43 45 48 57 63 70 76 75 75 75 73 68 63 51 47 41 33 25 19 17 19 21 24 23 24 25 28 32 40
24 22 23 27 31 29 30 34 38 38 40 44 45 47 47 48 48 55 64 71 77 79 77 76 74 71 67 58 49 46 37 28 21 18 18 20 22 23 21 23 25 27 34 43
35 29 31 39 32 37 37 40 40 43 48 44 46 48 48 49 53 60 74 80 80 77 75 74 71 67 65 52 48 44 33 23 19 18 19 20 22 21 21 24 26 29 37 46
40 34 54 28 39 45 47 42 42 45 46 47 50 56 60 61 65 72 78 76 74 75 73 70 68 70 56 53 48 39 26 20 17 19 19 21 22 20 24 25 27 32 38 48
57 48 36 29 39 40 41 44 46 44 43 45 48 54 61 66 74 75 77 74 75 75 70 67 66 62 55 52 44 29 22 18 18 19 20 22 20 23 26 27 29 31 36 47
55 64 50 43 46 45 43 51 57 56 52 53 60 69 71 75 82 82 76 74 75 72 67 67 63 59 55 48 33 23 19 17 20 19 21 20 22 24 26 28 26 27 32 44
49 57 51 55 48 44 47 61 59 54 57 63 73 81 84 83 80 82 76 74 72 68 70 65 63 59 52 38 24 20 16 20 19 20 20 21 21 20 20 20 17 17 23 30
46 59 65 54 49 44 46 52 54 65 70 72 79 80 86 86 81 79 73 72 75 73 66 68 62 55 43 25 21 16 14 18 20 20 20 21 20 17 14 14 13 12 17 22
44 43 57 60 46 51 52 60 69 77 79 81 84 80 80 80 83 78 76 79 75 68 72 65 56 47 31 23 15 10 17 17 20 21 17 17 17 11 10 9 9 7 10 18
44 41 42 44 48 58 66 70 77 89 88 84 82 81 79 83 87 81 83 77 69 73 67 59 52 38 22 13 10 16 18 20 22 21 21 17 14 12 11 11 10 8 7 15
40 47 47 47 44 47 55 69 74 84 88 85 79 83 86 88 83 86 83 76 74 67 66 57 43 27 14 10 16 20 21 23 23 23 22 23 22 17 14 13 11 9 8 13
61 49 47 48 49 47 54 60 72 75 78 83 82 85 84 87 88 85 78 73 70 70 63 49 34 18 12 12 21 21 21 21 24 25 23 24 24 23 18 16 16 12 10 11
51 46 49 50 50 54 60 68 74 75 76 80 86 89 92 92 88 79 78 76 74 66 54 39 28 15 13 18 21 24 23 23 24 25 24 22 24 23 22 20 19 16 13 13
50 49 51 54 57 63 76 86 86 87 87 91 95 95 94 86 81 80 82 78 70 57 43 34 21 16 15 19 19 19 20 22 23 24 24 24 23 26 25 22 20 18 15 14
47 51 55 59 62 77 88 90 91 93 94 95 96 93 86 84 83 82 77 72 62 48 37 26 21 14 17 21 22 23 23 23 21 20 21 24 23 23 26 24 23 18 17 17
50 56 62 67 72 80 80 81 82 84 87 89 87 84 81 80 79 75 72 63 51 39 31 28 19 16 18 23 22 18 18 20 24 23 22 23 22 21 21 24 25 23 19 19
59 66 70 74 77 81 84 81 79 83 82 83 81 78 77 73 70 68 60 51 41 35 31 26 16 14 20 24 23 20 18 19 22 22 21 22 23 22 19 19 22 25 23 21
68 70 73 76 80 83 85 87 85 80 75 70 69 68 69 69 62 53 50 40 38 35 32 24 15 15 22 24 23 23 20 20 22 21 22 21 22 24 21 18 17 19 22 23
67 70 73 79 85 91 91 84 76 71 68 68 67 64 59 52 38 35 36 37 38 36 35 24 16 17 22 24 22 22 22 20 22 22 21 22 22 23 22 20 18 17 17 20
66 75 80 84 83 82 78 73 70 64 58 52 49 45 40 35 32 33 35 37 38 38 38 25 17 18 25 23 23 24 21 20 23 21 21 22 22 23 23 23 21 20 18 17
77 78 83 87 82 75 70 62 56 54 47 48 46 41 36 32 31 33 35 37 39 42 43 30 20 20 29 25 25 25 21 21 20 19 20 22 23 23 24 23 23 23 22 20
83 86 82 76 73 69 62 58 50 45 42 35 31 31 31 30 31 33 35 39 42 44 45 34 21 25 30 30 26 28 23 19 19 19 19 22 23 23 23 23 24 24 24 23
87 79 74 76 69 64 55 47 43 36 33 30 29 29 29 28 29 31 36 41 43 46 47 39 24 25 28 33 31 30 26 22 19 18 18 19 24 24 25 23 22 24 24 26
80 78 76 69 60 48 43 36 33 32 31 29 28 29 30 31 30 33 37 39 42 45 45 49 33 27 26 30 32 31 29 26 22 20 21 19 20 24 26 26 24 22 24 24
80 75 65 55 47 43 36 33 30 29 28 28 27 28 29 31 32 33 35 38 41 43 42 40 28 23 24 25 29 34 36 33 29 24 22 23 23 20 21 25 27 26 23 23
72 60 48 47 40 32 28 29 29 30 30 28 28 26 29 32 32 34 37 38 36 37 36 31 25 22 24 27 30 34 37 37 34 32 27 23 23 24 23 20 22 25 26 25
56 50 42 33 32 31 30 30 30 29 31 29 27 27 29 31 32 34 37 39 36 34 31 30 27 28 29 33 35 34 32 35 35 33 31 28 26 25 25 25 24 21 21 23

GFSNGP_prec_cthk_333.txt.gz
RH
23 23 23 26 32 36 40 40 41 43 45 45 48 50 53 57 58 57 60 66 71 75 78 84 79 76 74 67 59 51 48 34 25 21 17 17 18 18 18 20 22 27 33 41
28 22 25 26 27 28 31 34 35 40 46 53 56 58 59 57 57 59 64 70 74 79 86 80 77 75 68 63 54 51 41 27 23 18 17 17 18 18 19 22 25 29 34 43
32 30 30 32 32 33 36 39 37 44 50 54 55 53 54 57 60 64 69 76 81 81 80 78 73 68 67 58 56 49 31 23 19 18 16 19 18 18 21 25 28 30 33 42
40 39 41 41 36 38 42 44 44 45 47 52 57 59 61 61 64 70 75 83 85 81 78 72 70 68 60 59 53 39 25 20 16 16 17 19 19 19 24 26 25 27 31 37
47 48 41 38 37 39 44 51 48 47 50 53 55 60 62 65 71 80 88 88 82 79 73 71 72 65 61 57 45 29 20 16 17 17 19 20 18 18 23 19 20 23 29 30
55 55 53 52 48 49 46 57 49 48 49 53 59 68 76 78 78 82 90 89 81 77 77 74 67 65 61 51 34 24 17 15 16 18 19 18 16 15 17 15 14 15 21 25
56 59 58 55 49 41 47 46 41 48 51 53 61 71 84 87 89 94 92 83 79 81 77 67 67 62 55 42 27 20 14 15 15 18 18 14 11 10 10 9 8 9 14 22
48 53 62 54 41 38 41 46 48 53 60 64 73 79 88 89 92 95 87 83 87 82 71 71 66 59 50 34 26 16 14 15 16 16 14 12 11 10 10 8 7 7 14 24
45 48 48 47 41 44 39 43 48 55 67 74 82 90 93 93 93 93 90 90 85 76 73 67 63 57 41 29 20 13 15 17 18 18 16 14 13 12 11 10 7 8 13 22
49 48 47 41 46 44 45 48 50 58 66 76 84 90 91 90 96 96 92 90 81 74 70 69 63 49 32 23 14 17 18 21 22 21 21 20 17 14 13 12 9 8 11 19
41 45 53 48 41 39 41 44 52 58 65 69 75 80 84 96 94 93 93 82 78 76 76 67 56 37 26 18 17 18 21 24 24 23 22 22 21 18 16 15 13 10 12 17
51 47 50 47 40 41 43 47 53 63 71 74 73 79 89 92 96 93 85 82 83 80 73 59 44 30 22 16 20 19 19 23 24 25 25 22 21 20 19 18 15 13 14 15
57 55 47 44 43 46 48 56 66 74 76 78 80 84 88 96 94 88 86 87 83 74 66 50 37 28 16 19 20 21 21 22 23 24 25 24 22 24 23 20 16 15 14 13
47 46 47 45 48 51 58 65 75 72 74 79 81 88 93 92 89 88 87 81 76 69 56 42 35 23 15 19 20 21 21 21 23 24 26 26 25 24 24 22 19 16 16 14
47 48 45 48 51 58 64 70 74 78 79 80 85 83 81 82 82 81 76 75 71 59 45 40 33 18 16 19 20 21 21 21 21 23 25 25 26 23 22 23 22 19 18 17
51 51 52 54 62 68 72 74 76 78 80 80 79 76 77 78 75 75 74 66 56 47 39 32 25 18 18 22 21 19 20 19 22 24 24 25 25 24 22 20 22 23 22 20
52 58 58 61 66 70 73 74 74 82 80 77 70 67 65 67 68 69 59 48 38 32 32 31 22 18 21 24 22 18 18 19 22 23 23 24 25 25 23 21 18 21 23 22
52 53 57 60 65 71 75 75 81 82 76 70 66 66 61 55 48 41 40 37 34 32 33 30 22 18 22 28 26 21 19 19 22 23 23 23 24 25 24 22 21 18 18 22
56 57 59 61 67 76 79 79 76 70 65 60 56 50 49 45 39 33 33 34 35 35 33 29 22 19 22 27 27 23 21 20 21 22 22 23 22 23 24 25 23 22 19 18
58 63 67 74 77 77 75 70 66 62 57 52 48 46 36 29 27 28 30 32 33 35 34 31 23 19 21 27 26 24 22 20 20 21 21 22 22 22 23 24 26 24 23 21
63 66 69 78 78 74 70 67 60 57 49 45 38 30 27 25 25 27 28 31 34 36 38 35 27 21 21 27 28 28 24 21 18 19 20 23 23 23 22 23 24 26 26 25
65 69 74 78 73 68 66 63 54 46 40 33 27 26 26 25 25 27 28 31 36 39 42 41 32 24 23 31 30 28 27 24 20 18 18 20 24 26 25 24 23 24 25 27
69 72 74 71 71 67 61 50 41 36 33 26 25 25 24 24 25 26 28 32 36 40 43 43 37 27 27 29 33 30 28 28 25 21 19 19 20 25 28 28 27 25 25 25
66 68 75 75 68 59 44 37 35 32 27 25 25 25 26 26 25 28 30 33 36 39 41 43 41 31 28 28 32 34 32 32 29 27 23 22 23 21 22 27 29 29 26 25
66 72 75 69 56 41 36 31 29 26 24 23 24 26 26 26 28 29 30 33 35 37 39 38 36 27 25 25 26 30 34 37 37 36 32 27 24 24 25 22 23 27 30 29
72 76 71 54 42 36 27 25 22 23 24 24 22 22 24 28 31 32 33 33 33 33 32 32 29 23 21 21 23 28 32 36 39 40 39 36 32 27 25 25 26 25 24 26
78 67 53 46 32 27 27 26 25 25 26 24 22 23 25 28 30 32 35 35 32 32 29 27 27 23 22 25 26 30 34 34 33 35 39 38 35 32 28 27 27 27 27 25

GFSNGP_prec_cthk_336.txt.gz
RH
25 26 25 26 27 32 35 37 39 40 44 44 46 50 59 68 69 66 63 67 75 80 82 85 85 86 80 75 65 56 51 38 28 21 16 15 15 15 17 20 21 25 29 33
25 25 24 24 25 28 30 32 36 38 43 45 53 57 64 67 63 63 71 75 78 82 83 88 88 82 77 73 61 56 43 30 26 22 15 15 16 17 18 20 20 23 25 29
29 27 25 35 32 32 33 36 35 39 42 48 54 58 61 65 69 72 73 75 82 86 90 89 83 82 76 67 61 50 34 28 27 20 15 17 16 17 19 19 18 20 23 27
36 32 41 36 35 36 38 42 42 45 46 47 48 50 56 60 63 67 79 87 90 93 92 85 84 80 74 66 54 42 28 27 26 15 16 16 15 15 17 17 14 15 20 28
42 43 38 39 43 45 44 47 45 44 44 43 42 46 52 58 65 73 86 93 95 95 88 86 84 78 71 59 49 35 28 28 18 16 16 14 12 12 13 13 11 13 18 27
52 51 47 48 46 44 42 51 43 38 40 44 52 60 66 75 84 87 93 97 97 93 91 86 79 75 64 56 42 32 28 22 15 16 14 11 10 10 9 7 7 10 18 32
54 57 53 49 46 40 38 34 36 40 44 46 52 60 70 81 88 96 98 97 95 93 90 86 77 69 61 50 36 27 24 15 15 15 14 12 11 10 10 8 8 11 20 33
53 57 52 46 36 33 36 34 35 42 46 54 61 70 77 87 95 97 96 96 94 95 86 77 74 65 58 40 29 26 19 17 16 16 15 13 12 12 11 10 8 9 16 27
48 51 46 42 40 38 38 39 43 45 49 55 64 71 79 88 96 96 96 96 96 88 79 77 71 62 45 33 25 23 18 20 22 22 20 16 14 13 13 12 10 9 12 19
46 51 48 42 48 43 38 39 43 48 55 60 68 75 82 83 91 96 97 96 87 83 82 77 65 53 38 28 26 23 22 22 24 24 23 20 16 15 15 15 13 11 11 14
49 47 45 47 48 45 39 40 46 51 58 66 69 73 76 81 91 93 92 89 85 86 81 69 63 45 32 28 26 26 24 23 25 26 26 22 19 17 17 17 16 13 13 14
42 43 48 49 45 40 39 43 49 53 58 61 64 67 69 80 84 83 86 85 87 82 76 63 52 37 30 30 28 22 22 23 24 26 27 26 23 20 19 18 18 16 14 12
40 43 49 45 43 41 43 49 53 56 57 62 64 68 75 85 84 85 83 83 79 75 65 53 43 35 30 24 23 23 22 21 22 26 27 27 26 23 22 20 19 19 16 14
41 48 48 45 42 43 50 54 57 61 63 65 69 76 83 78 76 77 74 74 73 66 53 42 34 24 20 22 24 22 21 20 21 24 26 27 28 26 23 22 21 21 19 17
42 48 48 49 49 51 57 60 63 65 66 69 73 76 74 73 70 69 67 65 61 50 37 32 27 22 19 22 23 23 21 19 20 23 25 27 29 27 24 21 23 22 22 20
47 46 50 52 53 56 59 62 65 68 71 72 72 69 67 64 59 56 55 52 45 37 30 30 26 20 20 22 25 23 20 19 21 23 24 24 27 29 26 23 20 22 23 23
50 53 52 52 56 58 62 66 68 72 73 72 67 63 59 52 51 51 43 36 34 30 29 29 25 20 21 25 26 22 19 19 20 22 23 22 23 26 29 26 23 20 20 23
48 50 52 56 59 64 68 70 75 78 73 67 60 55 52 48 42 35 33 32 30 29 31 30 25 21 21 26 29 26 21 20 19 21 21 22 21 23 25 28 26 24 21 19
54 54 55 57 61 67 67 72 74 71 65 59 54 50 44 36 29 28 29 31 31 31 32 29 24 20 22 25 28 28 24 20 20 19 21 23 22 22 23 25 27 28 25 22
54 56 57 58 62 66 65 69 67 61 57 52 46 40 32 24 23 26 27 29 31 32 31 29 24 21 21 25 29 28 26 22 21 19 20 22 23 23 24 25 25 26 29 27
56 58 60 60 64 66 64 65 61 57 49 44 36 28 22 21 22 24 26 28 31 32 34 32 28 23 22 23 27 29 28 25 22 19 19 21 25 26 26 27 27 26 25 28
60 61 60 62 61 59 63 61 56 48 39 34 26 22 21 21 22 24 25 28 31 33 36 38 32 26 25 24 26 31 30 28 25 23 19 19 21 26 29 30 30 28 27 26
59 59 60 55 55 59 61 54 46 37 32 24 21 20 20 21 23 24 26 30 32 34 37 37 33 30 26 27 28 33 31 29 29 28 25 22 22 21 24 30 32 33 30 27
57 55 53 54 60 57 52 45 38 34 28 22 21 21 21 22 23 26 29 32 33 34 36 34 32 30 24 26 27 31 36 34 32 33 32 30 25 25 26 23 25 30 34 33
53 54 55 61 59 52 43 38 35 30 23 22 22 22 24 25 26 27 29 32 34 34 35 33 32 27 21 21 24 25 30 34 37 40 41 40 35 29 26 26 27 27 27 29
56 59 65 65 58 45 39 33 28 22 21 20 20 23 26 27 29 28 29 33 35 34 31 33 29 25 22 19 19 21 23 30 34 39 41 41 42 39 34 30 29 29 29 29
64 69 68 62 49 38 31 29 25 23 22 20 20 21 23 26 29 30 31 34 35 34 30 28 26 24 20 20 20 22 25 27 31 32 31 32 38 40 36 32 28 26 27 27

GFSNGP_prec_cthk_342.txt.gz
RH
28 25 26 28 30 29 27 28 29 34 38 39 43 44 46 48 50 49 52 60 69 81 88 93 97 97 96 94 90 82 65 49 40 36 26 20 14 11 12 12 12 12 12 14
28 28 29 31 31 30 32 36 36 37 37 42 40 38 39 43 47 52 58 63 72 82 92 95 96 97 95 96 86 72 54 45 36 28 24 18 12 10 10 9 9 10 11 21
28 33 30 33 32 33 36 39 39 37 33 32 34 37 40 42 47 52 60 70 76 83 92 96 97 95 97 91 80 66 50 37 31 26 18 15 13 11 10 10 11 12 14 25
29 28 36 30 34 35 39 40 37 35 30 31 33 35 39 44 52 60 68 73 79 87 90 93 94 96 94 85 72 54 40 35 27 20 19 15 14 12 11 11 12 13 15 23
38 37 35 36 39 41 39 39 37 30 30 32 35 38 45 50 59 66 71 77 83 86 91 93 93 94 86 75 62 46 36 28 23 24 17 17 16 15 13 12 13 13 14 18
42 40 43 40 41 38 38 38 32 31 33 35 37 46 51 55 60 64 71 78 82 86 89 90 90 85 76 64 53 37 28 25 26 22 19 20 19 17 15 13 13 14 14 16
47 48 43 44 42 37 32 32 32 33 35 37 43 50 53 57 60 68 74 78 81 85 86 85 78 75 66 59 40 29 28 29 26 23 23 23 23 20 18 15 14 14 13 12
48 49 47 44 40 39 36 37 37 35 38 43 48 51 54 59 65 72 75 77 81 82 82 76 72 66 59 39 25 23 24 22 24 26 26 27 27 24 21 18 16 15 14 10
43 44 44 43 41 40 38 39 36 37 42 46 49 51 56 62 68 71 75 77 79 81 75 71 63 51 37 24 19 21 21 23 25 27 27 28 30 29 25 21 18 17 16 12
46 49 47 45 44 39 38 34 36 39 44 47 50 54 59 65 69 73 77 77 77 69 65 57 43 38 25 17 19 23 22 23 25 26 27 28 32 33 29 25 21 18 17 14
48 47 46 45 41 38 40 36 38 41 46 50 53 57 62 65 72 73 75 72 61 58 49 42 36 29 19 17 20 23 22 23 24 24 26 28 31 34 34 27 24 21 18 17
47 44 45 42 41 41 38 38 40 44 48 51 54 58 63 66 71 72 64 56 51 46 40 33 32 23 18 17 21 25 21 22 23 23 25 27 29 31 35 30 26 24 21 20
44 42 42 40 42 44 42 42 44 47 50 52 55 59 62 69 68 60 53 48 43 38 34 32 29 21 17 18 22 25 21 21 23 23 24 25 26 27 32 35 27 25 24 22
40 42 44 46 45 44 44 45 44 47 52 55 57 60 63 63 57 53 46 42 36 34 31 27 24 20 17 19 22 25 20 21 23 22 23 24 24 25 27 35 31 25 24 24
39 46 47 45 44 44 45 45 47 51 55 57 58 58 60 57 51 45 42 35 32 31 30 25 23 19 18 19 21 24 20 22 23 22 22 24 24 23 25 30 35 27 22 23
43 46 45 45 44 46 45 48 50 53 56 57 57 59 58 48 43 41 34 29 29 28 26 24 24 20 17 18 21 23 20 23 24 23 22 24 24 24 25 28 32 33 26 22
46 46 46 46 46 45 47 50 53 55 56 57 58 56 48 42 39 33 27 27 26 23 23 26 24 20 18 19 22 21 20 23 25 23 22 24 24 25 26 29 30 33 31 26
45 48 49 47 47 48 48 51 54 57 57 57 51 46 42 37 33 24 23 24 24 24 26 29 26 22 18 21 23 25 21 25 26 24 23 24 25 26 29 31 32 29 32 30
48 49 50 50 49 47 48 51 55 55 53 47 42 41 36 32 22 21 22 24 25 25 28 29 28 23 20 21 23 26 24 27 28 26 23 22 26 28 29 33 36 32 29 30
51 53 54 50 48 47 48 49 52 49 43 40 39 35 30 20 19 21 22 25 26 27 28 28 28 24 21 20 23 26 27 27 30 28 24 24 22 25 28 32 38 38 32 30
55 55 51 50 49 49 49 47 47 42 39 34 34 28 20 16 18 21 23 23 25 27 28 29 29 26 21 19 21 23 28 27 32 30 28 26 26 26 25 24 29 37 40 35
53 52 51 50 51 49 45 44 43 40 34 31 28 24 17 17 19 21 21 23 25 27 30 31 31 27 22 19 22 22 27 28 31 32 30 31 30 30 29 27 27 27 30 37
49 51 53 51 50 44 42 43 41 37 32 28 26 19 17 19 21 21 21 24 26 29 31 31 29 25 24 21 21 22 22 28 30 35 35 35 38 39 39 36 30 28 29 31
50 51 49 48 45 41 42 43 39 32 29 27 20 18 19 21 21 21 23 24 27 30 31 29 27 26 25 19 18 19 19 20 24 28 36 40 43 45 45 45 41 35 32 32
47 45 45 44 42 44 43 41 35 33 30 25 20 20 21 20 21 22 25 26 28 30 31 28 27 28 28 25 21 20 19 18 18 22 23 28 36 40 39 39 41 42 35 31
44 46 45 44 46 47 44 42 33 32 29 24 21 21 21 20 22 25 25 28 29 30 31 31 30 29 28 27 23 22 23 24 24 24 26 28 27 29 31 31 35 41 40 37
50 49 47 48 49 48 46 40 32 29 29 21 19 19 20 24 25 25 27 28 27 28 30 31 31 29 29 31 30 30 32 33 33 32 32 33 34 35 35 37 37 38 43 48